Overview Statistics Trail Chart Weather Telemetry Raw packets
 

This is the latest recevied weather packets stored in our database for station/object WW5JC. If no packets are shown the sender has not sent any weather packets the latest 10 day(s).

<< 84 85 86 87 88 89 90 >>
Time Temp. Humidity Pressure Rain* Wind** Luminosity Snow
1788009373 25° C 82% 1020.6 hPa 0 mm - 89 W/m² -
1788009074 25° C 83% 1020.6 hPa 0 mm - 80 W/m² -
1788008769 24.44° C 84% 1020.5 hPa 0 mm - 71 W/m² -
1788008469 24.44° C 84% 1020.8 hPa 0 mm - 64 W/m² -
1788008166 23.89° C 85% 1020.5 hPa 0 mm - 57 W/m² -
1788007864 23.33° C 86% 1020.5 hPa 0 mm - 50 W/m² -
1788007563 23.33° C 87% 1020.6 hPa 0 mm - 44 W/m² -
1788007258 22.78° C 88% 1020.3 hPa 0 mm - 38 W/m² -
1788006957 22.78° C 89% 1020.4 hPa 0 mm - 32 W/m² -
1788006651 22.78° C 89% 1020.3 hPa 0 mm - 26 W/m² -
1788006346 22.22° C 90% 1020.4 hPa 0 mm - 23 W/m² -
1788006045 22.22° C 90% 1020.4 hPa 0 mm - 19 W/m² -
1788005744 22.22° C 90% 1020.4 hPa 0 mm - 15 W/m² -
1788005440 22.22° C 90% 1020.3 hPa 0 mm - 12 W/m² -
1788005138 22.22° C 89% 1020 hPa 0 mm - 9 W/m² -
1788004833 22.22° C 89% 1020.1 hPa 0 mm - 6 W/m² -
1788004532 22.22° C 89% 1020 hPa 0 mm - 4 W/m² -
1788004227 22.78° C 89% 1020 hPa 0 mm - 2 W/m² -
1788003926 22.78° C 88% 1020.2 hPa 0 mm - 1 W/m² -
1788003620 22.78° C 88% 1020.1 hPa 0 mm - 0 W/m² -
1788003314 22.22° C 88% 1020.1 hPa 0 mm - 0 W/m² -
1788003010 22.78° C 88% 1019.9 hPa 0 mm - 0 W/m² -
1788002703 22.22° C 88% 1020 hPa 0 mm - 0 W/m² -
1788002399 22.78° C 87% 1019.9 hPa 0 mm - 0 W/m² -
1788002094 22.78° C 87% 1019.9 hPa 0 mm - 0 W/m² -

* Rain latest hour (hover to see other rain measurements)
** Current wind speed in m/s (hover to see current wind gust speed)